Location: Boiro
(42.6475°N, 8.8834°W)
Time: 18:51:09
(UTC+01:00)

Transit 2A - Pass Details

Date: 04 December 2021
Orbit: 591 x 967 km, 66.7° (Epoch: 20 January)

Event Time Altitude Azimuth Distance (km) Brightness Sun altitude
Rises 11:46:15 0° 317° (NW) 3,661 8.9 21.1°
Reaches altitude 10° 11:49:21 10° 304° (NW) 2,698 8.4 21.4°
Maximum altitude 11:54:09 23° 255° (WSW) 1,871 8.1 21.7°
Drops below altitude 10° 11:58:46 10° 205° (SSW) 2,574 9.5 22.0°
Sets 12:01:41 0° 191° (S) 3,454 10.3 22.2°
